Location: Fazenda Monte Alegre
(4.8500°S, 38.0333°W)
Time: 15:02:43
(UTC+00:00)

CSL-04 Rocket - Pass Details

Date: 24 September 2020
Orbit: 806 x 860 km, 98.9° (Epoch: 19 October)

Event Time Altitude Azimuth Distance (km) Brightness Sun altitude
Rises 21:33:34 0° 153° (SSE) 3,340 6.6 -17.3°
Reaches altitude 10° 21:36:03 10° 145° (SE) 2,412 5.8 -17.9°
Maximum altitude 21:40:59 39° 78° (ENE) 1,219 4.0 -19.1°
Drops below altitude 10° 21:45:58 10° 10° (N) 2,429 6.0 -20.4°
Sets 21:48:27 0° 2° (N) 3,368 6.8 -21.0°
